Weather History for Green Bay, WI

Change the Weather History Date:

Saturday, August 3, 2013

  Actual Average Record
Temperature  
Mean Temperature 64 °F 69 °F  
Max Temperature 77 °F 79 °F 96 °F (1988)
Min Temperature 51 °F 58 °F 44 °F (1972)
Degree Days  
Heating Degree Days 1 1  
Month to date heating degree days 1 3  
Since 1 June heating degree days 95 118  
Since 1 July heating degree days 23 26  
Cooling Degree Days 0 4  
Month to date cooling degree days 7 13  
Year to date cooling degree days 348 264  
Since 1 June cooling degree days 310 246  
Growing Degree Days 14 (Base 50)    
Moisture  
Dew Point 53 °F    
Average Humidity 72    
Maximum Humidity 100    
Minimum Humidity 43    
Precipitation  
Precipitation 0.00 in 0.11 in 1.79 in (1890)
Month to date precipitation 0.00 0.32  
Year to date precipitation 20.94 17.35  
Snow  
Snow 0.00 in 0.00 in 0.00 in ()
Month to date snowfall 0.0 0.0  
Since 1 June snowfall 0.0 0.0  
Since 1 July snowfall 0.0 0.0  
Snow Depth 0.00 in    
Sea Level Pressure  
Sea Level Pressure 30.06 in    
Wind  
Wind Speed 6 mph (NW)    
Max Wind Speed 16 mph    
Max Gust Speed 20 mph    
Visibility 10 miles    
Events      
T = Trace of Precipitation, MM = Missing Value Source: NWS Daily Summary

Daily Weather History Graph

Daily Weather History Graph

Search for Another Location

Airport:

Trip Planner

Search our weather history database for the weather conditions in past years. The results will help you decide how hot, cold, wet, or windy it might be!

Date:

Astronomy

Aug. 03, 2013 Rise Set
Actual Time 5:41 AM CDT 8:14 PM CDT
Civil Twilight 5:08 AM CDT 8:47 PM CDT
Nautical Twilight 4:27 AM CDT 9:28 PM CDT
Astronomical Twilight 3:40 AM CDT 10:15 PM CDT
Moon 2:49 AM CDT (8/3) 5:58 PM CDT (8/3)
Length of Visible Light 15h 38m
Length of Day
14h 32m
Waning Crescent, 9% of the Moon is Illuminated
Aug 3
Waning Crescent
Aug 6
New
Aug 14
First Quarter
Aug 20
Full
Aug 28
Last Quarter

Hourly Weather History & Observations

Time (CDT) Temp. Dew Point Humidity Pressure Visibility Wind Dir Wind Speed Gust Speed Precip Events Conditions
12:53 AM 57.0 °F 53.1 °F 87% 29.98 in 10.0 mi WSW 3.5 mph - N/A   Clear
1:53 AM 55.9 °F 52.0 °F 87% 29.99 in 10.0 mi West 3.5 mph - N/A   Clear
2:53 AM 55.0 °F 52.0 °F 89% 30.00 in 10.0 mi Calm Calm - N/A   Clear
3:53 AM 54.0 °F 52.0 °F 93% 30.01 in 10.0 mi Calm Calm - N/A   Clear
4:53 AM 53.1 °F 51.1 °F 93% 30.02 in 10.0 mi South 3.5 mph - N/A   Clear
5:53 AM 52.0 °F 51.1 °F 97% 30.04 in 10.0 mi West 4.6 mph - N/A   Clear
6:53 AM 57.0 °F 52.0 °F 83% 30.04 in 10.0 mi NNW 4.6 mph - N/A   Clear
7:53 AM 62.1 °F 54.0 °F 75% 30.05 in 10.0 mi North 6.9 mph - N/A   Clear
8:53 AM 68.0 °F 53.1 °F 59% 30.06 in 10.0 mi North 4.6 mph - N/A   Clear
9:53 AM 70.0 °F 53.1 °F 55% 30.06 in 10.0 mi NNE 4.6 mph - N/A   Clear
10:53 AM 71.1 °F 54.0 °F 55% 30.08 in 10.0 mi North 6.9 mph - N/A   Clear
11:53 AM 73.0 °F 52.0 °F 48% 30.08 in 10.0 mi WNW 9.2 mph - N/A   Partly Cloudy
12:53 PM 75.0 °F 52.0 °F 44% 30.08 in 10.0 mi NW 8.1 mph - N/A   Partly Cloudy
1:53 PM 73.9 °F 53.1 °F 48% 30.08 in 10.0 mi NW 8.1 mph - N/A   Scattered Clouds
2:53 PM 75.0 °F 53.1 °F 46% 30.08 in 10.0 mi NW 9.2 mph - N/A   Clear
3:53 PM 75.9 °F 53.1 °F 45% 30.07 in 10.0 mi West 8.1 mph - N/A   Partly Cloudy
4:53 PM 75.9 °F 51.1 °F 42% 30.07 in 10.0 mi NW 12.7 mph - N/A   Clear
5:53 PM 75.0 °F 53.1 °F 46% 30.07 in 10.0 mi WNW 9.2 mph - N/A   Clear
6:53 PM 72.0 °F 51.1 °F 48% 30.07 in 10.0 mi NNW 6.9 mph - N/A   Overcast
7:53 PM 70.0 °F 55.0 °F 59% 30.08 in 10.0 mi Calm Calm - N/A   Scattered Clouds
8:53 PM 64.9 °F 54.0 °F 68% 30.09 in 10.0 mi NNW 5.8 mph - N/A   Clear
9:53 PM 66.0 °F 57.9 °F 75% 30.12 in 10.0 mi NNE 9.2 mph - N/A   Partly Cloudy
10:53 PM 64.0 °F 57.9 °F 80% 30.14 in 10.0 mi NNE 6.9 mph - N/A   Clear
11:53 PM 60.1 °F 57.0 °F 90% 30.16 in 10.0 mi North 3.5 mph - N/A   Clear